TimeEDT,TemperatureF,Dew PointF,Humidity,Sea Level PressureIn,VisibilityMPH,Wind Direction,Wind SpeedMPH,Gust SpeedMPH,PrecipitationIn,Events,Conditions,WindDirDegrees,DateUTC
12:55 AM,66.9,55.9,68,30.12,10.0,NE,4.6,-,N/A,,Clear,40,2013-08-23 04:55:00
1:55 AM,66.0,54.0,65,30.12,10.0,NNE,3.5,-,N/A,,Clear,30,2013-08-23 05:55:00
2:55 AM,62.1,54.0,75,30.13,10.0,North,4.6,-,N/A,,Clear,10,2013-08-23 06:55:00
3:55 AM,60.1,53.1,78,30.13,10.0,North,4.6,-,N/A,,Clear,10,2013-08-23 07:55:00
4:55 AM,57.9,52.0,81,30.14,10.0,NNE,3.5,-,N/A,,Clear,30,2013-08-23 08:55:00
5:55 AM,57.9,51.1,78,30.14,10.0,Calm,Calm,-,N/A,,Clear,0,2013-08-23 09:55:00
6:55 AM,57.0,51.1,81,30.16,10.0,Calm,Calm,-,N/A,,Clear,0,2013-08-23 10:55:00
7:55 AM,60.1,52.0,75,30.17,10.0,Calm,Calm,-,N/A,,Clear,0,2013-08-23 11:55:00
8:55 AM,63.0,52.0,67,30.19,10.0,NE,3.5,-,N/A,,Clear,40,2013-08-23 12:55:00
9:55 AM,70.0,53.1,55,30.20,10.0,Calm,Calm,-,N/A,,Clear,0,2013-08-23 13:55:00
10:55 AM,73.9,52.0,46,30.20,10.0,NE,4.6,-,N/A,,Clear,50,2013-08-23 14:55:00
11:55 AM,77.0,51.1,40,30.20,10.0,NE,4.6,-,N/A,,Clear,40,2013-08-23 15:55:00
12:55 PM,79.0,48.9,35,30.19,10.0,NNE,6.9,-,N/A,,Clear,30,2013-08-23 16:55:00
1:55 PM,80.1,51.1,36,30.19,10.0,NNE,8.1,-,N/A,,Partly Cloudy,30,2013-08-23 17:55:00
2:55 PM,79.0,54.0,42,30.17,10.0,WNW,11.5,-,N/A,,Partly Cloudy,290,2013-08-23 18:55:00
3:55 PM,79.0,55.9,45,30.15,10.0,West,10.4,-,N/A,,Partly Cloudy,280,2013-08-23 19:55:00
4:55 PM,79.0,54.0,42,30.15,10.0,WNW,12.7,-,N/A,,Clear,290,2013-08-23 20:55:00
5:55 PM,78.1,52.0,40,30.15,10.0,NW,9.2,-,N/A,,Clear,310,2013-08-23 21:55:00
6:55 PM,77.0,52.0,42,30.15,10.0,NW,6.9,-,N/A,,Clear,310,2013-08-23 22:55:00
7:55 PM,73.0,50.0,44,30.16,10.0,NW,6.9,-,N/A,,Clear,310,2013-08-23 23:55:00
8:55 PM,69.1,52.0,54,30.17,10.0,NW,6.9,-,N/A,,Partly Cloudy,310,2013-08-24 00:55:00
9:55 PM,66.0,55.0,68,30.18,10.0,North,5.8,-,N/A,,Scattered Clouds,350,2013-08-24 01:55:00
10:55 PM,64.9,55.9,73,30.19,10.0,Calm,Calm,-,N/A,,Clear,0,2013-08-24 02:55:00
11:55 PM,63.0,55.9,78,30.20,10.0,North,3.5,-,N/A,,Clear,360,2013-08-24 03:55:00